[[{"header":{"parameterUnit":"m.s-1","parameterCategory":1,"la1":30.2991,"la2":30.254,"lo1":-89.0895,"lo2":-89.0444,"dy":0.0017,"dx":0.0017,"nx":28,"ny":28,"refTime":"2024-06-07T03:00:00:Z","depth":0,"parameterNumber":2,"parameterNumberName":"U-component_of_WINDS"},"data":[0,0,0,0,0,0,0,0,0,0,0,0,0,0,0,0,0,0,0,0,0,0,0,0,0,0,0,0,0,0,0,0,0,0,0,0,0,0,0,0,0,0,0,0,0,0,0,0,0,0,0,0,0,0,0,0,0,0,0.4886,0.4887,0,0.4922,0.4922,0.4923,0.4925,0.4925,0.4925,0.4924,0.4964,0.4965,0.4966,0,0,0,0,0,0,0,0,0,0,0,0,0,0.4822,0.4823,0.4886,0.4887,0.4887,0.4922,0.4922,0.4923,0.4925,0.4925,0.4924,0.4924,0.4963,0.4965,0.4967,0,0,0,0,0,0,0,0,0,0,0,0,0,0.4853,0.4824,0.4886,0.4892,0.4893,0.4922,0.4922,0.4923,0.4926,0.4925,0.4924,0.4924,0.4963,0.4965,0.4967,0.4992,0,0,0.4973,0.4974,0,0,0,0,0,0,0,0,0.4851,0.4856,0.4891,0.4892,0.4893,0.4919,0.4914,0.4946,0.4926,0.4913,0.4924,0.4923,0.4949,0.4953,0.4961,0.4994,0.4996,0.4974,0.4975,0.4976,0.4976,0,0,0,0,0,0,0,0.4849,0.4854,0.49,0.4892,0.4893,0.4894,0.4898,0.492,0.4934,0.4914,0.4915,0.4919,0.495,0.4959,0.4962,0.4996,0.4974,0.4975,0.4977,0.4978,0.5052,0.5053,0,0,0,0,0,0,0.4845,0.4852,0.4899,0.4902,0.487,0.4896,0.49,0.4911,0.4934,0.4937,0.4919,0.4919,0.4955,0.4959,0.4963,0.4994,0.4976,0.4978,0.4979,0.5052,0.5053,0.5053,0,0,0,0,0,0,0.4844,0.485,0.4898,0.4877,0.4883,0.4898,0.491,0.4912,0.4921,0.4938,0.4941,0.4925,0.4955,0.496,0.4985,0.4995,0.4979,0.4981,0.5051,0.5052,0.5053,0.5056,0,0,0,0,0,0,0.4842,0.4849,0.4858,0.4877,0.4884,0.4918,0.4911,0.4913,0.4924,0.4924,0.4944,0.4947,0.4955,0.4982,0.4987,0.4998,0.4982,0.505,0.5051,0.5053,0.5055,0.5057,0.5059,0,0,0,0,0,0.484,0.4859,0.4859,0.4865,0.4896,0.4919,0.4923,0.4931,0.4925,0.4935,0.4946,0.4947,0.4993,0.4984,0.499,0.5002,0.5049,0.5051,0.5053,0.5055,0.5057,0.5059,0,0,0,0,0,0,0.4842,0.4861,0.4862,0.4887,0.4901,0.4919,0.4932,0.4933,0.495,0.4949,0.4958,0.4963,0.4987,0.4997,0.4987,0.5028,0.5021,0.5024,0.502,0.5023,0.5025,0.5022,0.4984,0,0,0,0,0,0.4845,0.4861,0.4878,0.4898,0.4905,0.4917,0.4928,0.4932,0.4947,0.4954,0.4966,0.4982,0.5,0.5012,0.503,0.5057,0.5062,0.5068,0.507,0.5072,0.5074,0.5089,0.5092,0.5058,0.5058,0.5058,0,0,0.4852,0.4865,0.4875,0.4899,0.491,0.4928,0.4922,0.4941,0.4954,0.4957,0.4981,0.499,0.5009,0.5034,0.5046,0.5043,0.5084,0.5074,0.5075,0.5076,0.5091,0.5094,0.5097,0.506,0.5059,0.5059,0,0,0.4874,0.4885,0.4903,0.4914,0.4931,0.4939,0.4944,0.4962,0.4968,0.4992,0.4994,0.501,0.5042,0.5054,0.5065,0.5091,0.5092,0.5096,0.5106,0.5121,0.5123,0.5126,0.5135,0.5138,0.5099,0.5099,0.5099,0,0.488,0.4905,0.4912,0.493,0.4941,0.4944,0.4963,0.4974,0.4996,0.5004,0.5,0.5039,0.5051,0.508,0.5086,0.5095,0.51,0.5094,0.5122,0.5125,0.5127,0.5136,0.5139,0.5099,0.5099,0.5099,0.5099,0,0.4913,0.493,0.4943,0.4963,0.4976,0.4994,0.5004,0.5016,0.502,0.5028,0.5052,0.5067,0.5088,0.5095,0.5099,0.5124,0.5122,0.512,0.5113,0.513,0.5139,0.5142,0.51,0.5099,0.5099,0.5099,0,0,0.4936,0.496,0.4965,0.4974,0.4993,0.5007,0.5026,0.5045,0.5055,0.507,0.5086,0.5112,0.511,0.5123,0.5128,0.5141,0.516,0.5137,0.5138,0.5141,0.5188,0.519,0.5193,0.5161,0.5162,0.5162,0.5187,0,0.496,0.4992,0.4999,0.5027,0.5043,0.5046,0.5062,0.5076,0.5084,0.51,0.511,0.5128,0.5124,0.5131,0.5144,0.5155,0.517,0.5153,0.5177,0.5177,0.5172,0.5198,0.5199,0.5222,0.519,0.5191,0.5191,0,0.4991,0.5006,0.5036,0.5052,0.5059,0.5074,0.5092,0.5107,0.5123,0.5128,0.5141,0.5145,0.5165,0.5157,0.5185,0.5174,0.5184,0.5191,0.5192,0.5194,0.5185,0.5201,0.5229,0.5232,0.5197,0.5196,0.5196,0,0.5005,0.5033,0.5054,0.5062,0.5082,0.5092,0.5101,0.5116,0.5127,0.5143,0.5151,0.5169,0.518,0.5194,0.5203,0.5197,0.5231,0.5224,0.5236,0.5236,0.5243,0.5242,0.5273,0.525,0.525,0.525,0.5249,0,0.503,0.5048,0.506,0.5073,0.5094,0.5101,0.5122,0.5131,0.5144,0.5159,0.5164,0.5178,0.5189,0.5206,0.5213,0.5235,0.524,0.5245,0.5247,0.5244,0.5244,0.5251,0.525,0.525,0.525,0.525,0.525,0,0.5048,0.5057,0.5081,0.5098,0.5102,0.5116,0.5131,0.5144,0.5153,0.5172,0.5177,0.5191,0.521,0.522,0.5245,0.525,0.5275,0.5276,0.5269,0.5269,0.5281,0.528,0.5318,0.5323,0.5296,0.5296,0.5296,0,0.5063,0.5077,0.5095,0.5105,0.5114,0.5131,0.5142,0.515,0.5162,0.5181,0.5192,0.5211,0.5227,0.5258,0.527,0.5289,0.529,0.5302,0.5293,0.529,0.529,0.5289,0.5291,0.5304,0.5304,0.5304,0.5304,0,0.5089,0.5093,0.5108,0.5125,0.5138,0.5152,0.5166,0.5175,0.5186,0.5198,0.5218,0.523,0.5254,0.5274,0.5293,0.5303,0.5306,0.5307,0.5311,0.5309,0.5304,0.5307,0.5273,0.5306,0.5306,0.5306,0.5306,0.5306,0.5106,0.5119,0.5133,0.515,0.5162,0.5175,0.5187,0.5197,0.5213,0.5233,0.5237,0.5258,0.5274,0.53,0.5311,0.5327,0.5325,0.5331,0.5332,0.5333,0.5334,0.5301,0.5331,0.5331,0.5331,0.5331,0.5331,0,0.5132,0.5142,0.5157,0.5176,0.519,0.519,0.5206,0.5217,0.5235,0.5249,0.5264,0.5286,0.5305,0.5319,0.5338,0.5349,0.535,0.5353,0.5353,0.5355,0.5335,0.5329,0.5352,0.5352,0.5352,0.5352,0.5352,0.5352,0.5147,0.5168,0.5173,0.52,0.521,0.5229,0.5238,0.525,0.5261,0.5285,0.53,0.5309,0.5323,0.5343,0.5361,0.5364,0.5371,0.5374,0.5378,0.5359,0.5356,0.5354,0.5349,0.5376,0.5376,0.5397,0.5397,0.5397]},{"header":{"parameterUnit":"m.s-1","parameterCategory":1,"la1":30.2991,"la2":30.254,"lo1":-89.0895,"lo2":-89.0444,"dy":0.0017,"dx":0.0017,"nx":28,"ny":28,"refTime":"2024-06-07T03:00:00:Z","depth":0,"parameterNumber":3,"parameterNumberName":"V-component_of_WINDS"},"data":[0,0,0,0,0,0,0,0,0,0,0,0,0,0,0,0,0,0,0,0,0,0,0,0,0,0,0,0,0,0,0,0,0,0,0,0,0,0,0,0,0,0,0,0,0,0,0,0,0,0,0,0,0,0,0,0,0,0,2.2023,2.2022,0,2.1943,2.1942,2.1941,2.1891,2.1891,2.1891,2.1891,2.1804,2.1802,2.18,0,0,0,0,0,0,0,0,0,0,0,0,0,2.2128,2.2127,2.2023,2.2022,2.2021,2.1943,2.1942,2.1941,2.1891,2.1891,2.1891,2.1891,2.1805,2.1802,2.18,0,0,0,0,0,0,0,0,0,0,0,0,0,2.2069,2.2126,2.2024,2.1987,2.1983,2.1944,2.1942,2.1941,2.1891,2.1891,2.1891,2.189,2.1805,2.1802,2.1799,2.1788,0,0,2.179,2.1788,0,0,0,0,0,0,0,0,2.2072,2.2065,2.1994,2.199,2.1985,2.1927,2.1947,2.1889,2.1892,2.1926,2.1891,2.189,2.1845,2.1838,2.1824,2.1784,2.178,2.179,2.1788,2.1786,2.1785,0,0,0,0,0,0,0,2.2076,2.2068,2.1991,2.1993,2.1987,2.1973,2.1964,2.1936,2.1888,2.1923,2.1919,2.1911,2.1842,2.1827,2.1822,2.1779,2.179,2.1787,2.1785,2.1784,2.1723,2.1723,0,0,0,0,0,0,2.2087,2.2072,2.1994,2.1989,2.2029,2.1972,2.1962,2.1946,2.1889,2.188,2.1911,2.1909,2.1833,2.1825,2.1818,2.18,2.1786,2.1783,2.1782,2.1722,2.1723,2.1723,0,0,0,0,0,0,2.2089,2.2081,2.1997,2.2029,2.2018,2.197,2.1953,2.1945,2.1929,2.188,2.1871,2.1905,2.1832,2.1823,2.1796,2.1796,2.1782,2.1779,2.1722,2.1722,2.1723,2.1764,0,0,0,0,0,0,2.2093,2.2082,2.2078,2.203,2.2016,2.1978,2.1953,2.1943,2.1925,2.1921,2.1871,2.1863,2.1831,2.1801,2.1793,2.1792,2.1777,2.1722,2.1722,2.1723,2.1762,2.1765,2.1768,0,0,0,0,0,2.2097,2.2092,2.2078,2.2069,2.2011,2.1978,2.197,2.1935,2.1925,2.192,2.1888,2.1864,2.1798,2.1798,2.1789,2.1787,2.1722,2.1722,2.1723,2.1761,2.1765,2.1768,0,0,0,0,0,0,2.2141,2.2085,2.2069,2.205,2.2019,2.197,2.1962,2.1941,2.1911,2.1908,2.1865,2.1854,2.1831,2.1806,2.1808,2.1772,2.1757,2.1755,2.1789,2.1792,2.1795,2.1801,2.1774,0,0,0,0,0,2.2149,2.2128,2.208,2.2067,2.2052,2.201,2.1994,2.197,2.1936,2.1922,2.1888,2.1855,2.1826,2.1808,2.1779,2.1758,2.1746,2.1752,2.1755,2.1758,2.1757,2.1742,2.1744,2.1725,2.1725,2.1725,0,0,2.2164,2.2131,2.212,2.2075,2.2048,2.2026,2.2,2.1977,2.1959,2.1918,2.1891,2.1864,2.1824,2.18,2.1787,2.1778,2.176,2.1759,2.1761,2.1759,2.1743,2.1745,2.1747,2.1725,2.1725,2.1725,0,0,2.2179,2.2154,2.2139,2.2113,2.2074,2.2046,2.2042,2.1996,2.1977,2.1949,2.1917,2.1895,2.1847,2.1818,2.1798,2.1802,2.1779,2.1794,2.181,2.1796,2.1797,2.1799,2.1799,2.1799,2.1793,2.1793,2.1793,0,2.2203,2.2169,2.2134,2.2114,2.2094,2.2057,2.2041,2.2017,2.1969,2.1955,2.1947,2.1885,2.1855,2.1823,2.1824,2.1809,2.1802,2.1799,2.18,2.1801,2.1802,2.1801,2.1801,2.1795,2.1795,2.1795,2.1795,0,2.2199,2.2176,2.2169,2.2126,2.2105,2.2087,2.2047,2.203,2.2007,2.1979,2.195,2.1913,2.1875,2.1866,2.1843,2.183,2.1825,2.1809,2.1793,2.1806,2.1805,2.1804,2.1798,2.1797,2.1797,2.1796,0,0,2.224,2.2178,2.2175,2.2154,2.2108,2.2088,2.2068,2.2032,2.2017,2.1986,2.1966,2.1925,2.191,2.1887,2.186,2.1848,2.1852,2.1833,2.1831,2.1837,2.1833,2.1845,2.1846,2.1837,2.1836,2.1836,2.1836,0,2.2248,2.2211,2.2178,2.2152,2.2129,2.2094,2.2075,2.2043,2.2017,2.1992,2.1961,2.1933,2.1916,2.1901,2.1888,2.1855,2.1851,2.1854,2.1815,2.1815,2.1826,2.1845,2.1858,2.186,2.1835,2.1835,2.1835,0,2.2252,2.2223,2.2196,2.215,2.2139,2.2124,2.2088,2.2065,2.2028,2.2009,2.1983,2.1955,2.1929,2.1916,2.1879,2.1882,2.1864,2.1845,2.1844,2.1839,2.1825,2.1839,2.1859,2.1859,2.1834,2.1834,2.1835,0,2.2283,2.2237,2.2214,2.2198,2.2145,2.2134,2.2111,2.2074,2.2054,2.2022,2.2008,2.1973,2.1953,2.1925,2.1888,2.1883,2.1854,2.1838,2.1836,2.1837,2.1831,2.1832,2.1848,2.1821,2.1821,2.1821,2.1821,0,2.2295,2.2279,2.2227,2.2213,2.2193,2.2155,2.2136,2.211,2.2076,2.2055,2.2021,2.2001,2.1954,2.1928,2.1898,2.1871,2.1862,2.1845,2.1837,2.1847,2.1849,2.1834,2.1833,2.1821,2.1821,2.1821,2.1821,0,2.2326,2.2291,2.2263,2.2216,2.2203,2.2191,2.2149,2.2133,2.2104,2.2077,2.2068,2.2023,2.199,2.1951,2.1905,2.1885,2.1859,2.1848,2.1873,2.1868,2.1867,2.1868,2.1874,2.1872,2.1848,2.1848,2.1848,0,2.2335,2.2322,2.2273,2.2257,2.2236,2.2211,2.219,2.2152,2.2132,2.2088,2.2076,2.2041,2.2011,2.196,2.1922,2.1886,2.1873,2.1878,2.1867,2.1878,2.1871,2.1872,2.187,2.188,2.1881,2.1881,2.1881,0,2.2354,2.2338,2.2311,2.2278,2.2256,2.2228,2.2198,2.2186,2.2141,2.2119,2.2087,2.2064,2.2017,2.1982,2.1941,2.1915,2.189,2.1885,2.1882,2.1892,2.1907,2.1898,2.1879,2.1885,2.1884,2.1884,2.1884,2.1884,2.2373,2.236,2.2324,2.2295,2.2268,2.2241,2.2224,2.2193,2.2166,2.2126,2.2104,2.2072,2.2032,2.1976,2.195,2.1923,2.1914,2.191,2.1909,2.1909,2.1911,2.1912,2.1915,2.1915,2.1915,2.1915,2.1914,0,2.239,2.2365,2.2339,2.2299,2.2276,2.2256,2.2222,2.2203,2.2175,2.2142,2.2114,2.2075,2.2041,2.2,2.1962,2.1948,2.1935,2.1939,2.1939,2.1933,2.1922,2.1927,2.195,2.195,2.195,2.195,2.195,2.195,2.2396,2.2371,2.2351,2.2312,2.2286,2.2256,2.2238,2.2212,2.2185,2.2144,2.2116,2.209,2.2053,2.2013,2.1979,2.1968,2.1955,2.1962,2.1948,2.1937,2.1934,2.1931,2.1936,2.196,2.196,2.1961,2.1961,2.1961]}]]